Torna al catalogo

SL-16 DEB

AttivoLEO
NORAD 39723·DEBRIS·🇷🇺 Russia

Lanciato Dec 25, 1992 da Baikonur Cosmodrome

Loading…

Prossimi Passaggi (prossime 24 ore)

TLE

In scadenzaSource: Space-Track

Epoca: Sep 12, 2026, 16:16 UTC

1 39723U 92093KP  26255.67802457  .00001847  00000-0  68912-3 0  9995
2 39723  71.0906 241.0893 0049059  12.6705 347.5648 14.32563722252454

Traccia SL-16 DEB in tempo reale con AllMySat

Download on the App Store